Елькино

Россия / Московская область     54°44′19″N   37°27′19″E
темп.,
°C
ветер,
м/с
пор.,
м/с
влажн.,
%
обл.,
%
осадки,
мм/ч
давл.,
гПа
погр.,
м
12 мая, ср
ср1200:00+10юв36935 0.0 1026117
03:00+8юв34931 0.0 102669
06:00+8вюв22890 0.0 102754
09:00+11в2383100 0.0 1026298
12:00+11ссв2488100 0.1 1024211
15:00+12св31095100 3.6 1020554
18:00+9ююз5698100 4.4 1019259
21:00+7ююв369711 5.3 1020165
13 мая, чт
чт1300:00+6юв359765 0.0 102198
03:00+5в379712 0.0 1020141
06:00+7в5119496 0.0 1020294
09:00+12вюв51185100 0.0 1019453
12:00+16вюв5767100 0.0 1017865
15:00+18вюв68647 0.2 10141407
18:00+9юз4109490 5.0 1015369
21:00+7ююз339382 5.1 101648
14 мая, пт
пт1400:00+7ююв359427 0.0 101767
03:00+7ююв3494100 0.0 101856
06:00+8юв3693100 0.0 1018131
09:00+13вюв478080 0.0 1017331
12:00+19вюв5771100 0.2 1016829
15:00+20юв6973100 2.8 10141149
18:00+19юв51179100 2.3 1012324
21:00+16ююв41190100 3.9 1011200
15 мая, сб
сб1500:00+15ю399189 1.3 1011175
03:00+14юв3693100 2.1 1011116
06:00+15ю41290100 1.3 1010339
09:00+18ю51280100 1.3 1010661
12:00+16ююв51389100 1.9 1010517
15:00+21ю7107210 2.7 10091259
18:00+19ююз59795 1.2 1009819
21:00+14ююз389121 3.3 1009134
16 мая, вс
вс1600:00+13юз3694100 0.1 1010118
03:00+11юз499660 0.1 1012211
06:00+10юз410940 0.0 1013354
09:00+14зюз58790 0.0 1014688
12:00+18юз576674 0.0 10151419
15:00+18зюз466596 0.1 10151360
18:00+18зюз3572100 0.0 1016885
21:00+14зюз118299 0.0 101611